Simultaneous Nadir Overpasses (SNOs) Predictions

Prediction of SNOs between AURA and NPP Satellite Orbit:

Table of predicted SNOs for the next 14.0 days since TLE Epoch: 8/11/2018
Index Date (AURA) Time (AURA) Lat,Lon (AURA) SZA (AURA ) Date (NPP) Time (NPP) Lat,Lon (NPP) SZA (NPP ) Distance(km) Time Diff (sec)
1 08/13/2018 02:53:39 -75.58,-163.45 96.89 08/13/2018 02:52:25 -75.79,-164.60 96.72 39.78 74
2 08/13/2018 03:41:40 79.38, 20.53 78.35 08/13/2018 03:41:41 79.39, 20.64 78.33 2.42 1
3 08/15/2018 19:08:46 -79.18, -32.53 100.58 08/15/2018 19:07:59 -79.18, -32.52 100.55 0.28 47
4 08/15/2018 19:58:04 79.49, 137.12 78.99 08/15/2018 19:58:34 79.49, 137.21 78.95 1.85 30
5 08/18/2018 11:25:11 -79.29, 84.02 99.92 08/18/2018 11:24:53 -79.28, 84.02 99.91 0.25 18
6 08/18/2018 12:14:30 79.55,-106.57 79.71 08/18/2018 12:15:29 79.55,-106.49 79.65 1.56 59
7 08/21/2018 02:52:16 79.10, 31.12 81.17 08/21/2018 02:51:09 79.11, 31.21 81.20 2.00 67
8 08/21/2018 03:41:37 -79.35,-159.69 99.17 08/21/2018 03:41:48 -79.35,-159.69 99.18 0.28 11
9 08/23/2018 19:08:40 79.24, 147.87 81.83 08/23/2018 19:08:02 79.25, 147.97 81.84 2.26 38




NCC Satellite Simultaneous Nadir Overpasses (SNOs) Prediction Service
